sat.trackr.live / text

‹ back to catalog

STARLINK-30873

NORAD 58249 · 2023-171V

PAYLOAD ACTIVE UNKNOWN

§ Identity

Operator
Country
US
Launch date
2023-11-08
Launch site
AFETR
Launch vehicle
Mass (kg)
RCS (m²)

Purposes: comms

External: N2YO · Heavens-Above · Gunter

§ Orbital elements

Epoch: 2026-05-24T22:08:07.495008Z

Period
94.27 min
Inclination
43.0019°
Eccentricity
0.0001623
Mean motion
15.27574512 rev/d
Perigee alt
482.0 km
Apogee alt
484.2 km
Semi-major
6,861.2 km
B*
3.0523e-5
RAAN
214.6751°
Arg perigee
270.6590°
Mean anomaly
89.4076°
Rev number
14,139

§ Raw data

STARLINK-308731 58249U 23171V   26144.92230897  .00000578  00000+0  30523-4 0  99952 58249  43.0019 214.6751 0001623 270.6590  89.4076 15.27574512141395

JSON: /api/v1/satellites/58249 · /tle

For live sub-satellite position, see the globe view (requires WebGL).

§ Visibility from observer

Set your observer location to see the next 7 days of passes ≥ 10°. The values pass through the URL so the page stays shareable.

No JS? Fill the form by hand. The geolocation button needs JavaScript.